Home > Weather > Witzenhausen > Past weeks

Flag for Germany Weather for the Past 2 Weeks in Witzenhausen, Hesse, Germany

Now
43 °F

Partly sunny.


Feels Like: 37 °F
Forecast: 36 / 40 °F
Wind: 10 mph from Southeast

Location: Kassel / Calden

Current Time: Feb 9, 2016 at 1:00:11 PM

Latest Report: Feb 9, 2016 at 11:50 AM


Visibility: N/A

Pressure: 29.30 "Hg

Humidity: 81%

Dew point: 37 °F

Location of WitzenhausenLocation

Historic Weather in Witzenhausen — Graph

°F

Witzenhausen Temperature Yesterday

Maximum temperature yesterday: 46 °F (at 12:20 PM)
Minimum temperature yesterday: 43 °F (at 7:20 AM)
Average temperature yesterday: 44 °F

High & Low Weather Summary for the Past Weeks

 TemperatureHumidityPressure
High52 °F (Jan 27, 1:20 PM)100% (Jan 25, 10:20 AM)30.36 "Hg (Jan 25, 10:20 AM)
Low34 °F (Feb 3, 5:50 PM)49% (Jan 28, 2:50 PM)29.27 "Hg (Feb 8, 2:50 PM)
Average44 °F81%29.95 "Hg
* Reported Jan 25 10:20 AM — Feb 9 10:50 AM, Witzenhausen, Weather by CustomWeather, © 2016

Note: Actual official high and low records may vary slightly from our data, if they occured in-between our weather recording intervals... More about our weather records

Advertising

Witzenhausen Weather History for the Previous 24 Hours

 ConditionsComfort  
Time TempWeatherWind HumidityBarometerVisibility
10:50 AM
Tue, Feb 9
43 °FPartly sunny.12 mph76%29.36 "HgN/A
10:20 AM43 °FPartly sunny.15 mph76%29.39 "HgN/A
9:50 AM41 °FLight rain. Partly sunny.14 mph81%29.39 "Hg6 mi
8:50 AM43 °FPassing clouds.21 mph71%29.42 "HgN/A
8:20 AM41 °FPassing clouds.20 mph76%29.42 "HgN/A
7:50 AM41 °FPassing clouds.20 mph76%29.42 "HgN/A
7:50 PM
Mon, Feb 8
43 °FPassing clouds.18 mph76%29.36 "HgN/A
7:20 PM43 °FPartly cloudy.17 mph76%29.33 "HgN/A
6:50 PM45 °FPartly cloudy.18 mph71%29.33 "HgN/A
6:20 PM45 °FPartly cloudy.16 mph76%29.33 "HgN/A
5:50 PM45 °FThundershowers. Passing clouds.21 mph71%29.30 "HgN/A
5:20 PM45 °FScattered clouds.18 mph76%29.30 "HgN/A
4:50 PM45 °FScattered clouds.17 mph76%29.30 "HgN/A
4:20 PM45 °FScattered clouds.16 mph76%29.30 "HgN/A
3:50 PM45 °FScattered clouds.18 mph76%29.30 "HgN/A
3:20 PM45 °FBroken clouds.21 mph76%29.30 "HgN/A
2:50 PM45 °FBroken clouds.22 mph76%29.27 "HgN/A
2:20 PM45 °FLight rain. Broken clouds.21 mph81%29.30 "HgN/A
1:50 PM45 °FBroken clouds.20 mph81%29.30 "HgN/A
1:20 PM45 °FLight rain. Partly sunny.18 mph87%29.33 "HgN/A
Weather by CustomWeather, © 2016

See weather overviewHow to use our weather pages